Location: Colle Santa Colomba
(42.0333°N, 12.5667°E)
Time: 22:08:29
(UTC+00:00)

CSL-04 Rocket - Pass Details

Date: 25 October 2021
Orbit: 805 x 860 km, 98.9° (Epoch: 05 December)

Event Time Altitude Azimuth Distance (km) Brightness Sun altitude
Exits shadow 18:39:01 86° 60° (ENE) 868 3.6 -27.7°
Drops below altitude 10° 18:44:35 10° 347° (NNW) 2,507 6.4 -28.7°
Sets 18:46:58 0° 347° (NNW) 3,446 7.2 -29.2°
